Página principal
METAR-TAF:

METAR-TAF

Aeroportos :

Ann Arbor, Michigan, Estados Unidos

latitude: 42-13-26N, longitude: 083-44-24W, altura: 255 m

Observação actual do tempo

O boletim foi feito há 21 horas e 27 minutos, às 23:53 UTC
Vento 4 kt de este
Temperatura 22°C
Humidade 83%
Pressão 1014 hPa
Visibilidade: 16.1 km
Céu limpo

METAR: KARB 202353Z AUTO 09004KT 10SM CLR 22/19 A2993 RMK AO2 SLP130 T02220189 10272 20222 56007

Hora: 17:20 (21:20 UTC)


TAF: em falta

Observações e previsões do tempo de mais de 4000 aeroportos (mensagens METAR e TAF).

As estações disponíveis são os pontos amarelos e vermelhos sobre o mapa.

Mova o rato sobre o mapa para ver o nome da estação.

Depois clique no ponto para visualizar as observações e previsões meteorológicas.

Para alterar o mapa : clique nos botões verdes com uma cruz preta para aumentar o zoom; no botão verde com uma pitada de zoom; ou nas setas verdes para mapas adjacentes.


METAR-TAF: